Location: Krasnoyarskiy Pitomnik
(51.1333°N, 71.6167°E)
Time: 23:26:48
(UTC+00:00)

NOSS 2-2 (C) - Pass Details

Date: 31 May 2022
Orbit: 439 x 1763 km, 63.3° (Epoch: 02 June)

Event Time Altitude Azimuth Distance (km) Brightness Sun altitude
Rises 18:41:24 0° 312° (NW) 2,953 7.9 -16.6°
Reaches altitude 10° 18:43:26 10° 308° (NW) 2,179 7.0 -16.6°
Maximum altitude 18:48:17 54° 232° (SW) 1,052 4.5 -16.7°
Enters shadow 18:51:58 25° 165° (SSE) 1,925 5.4 -16.7°
